This is the latest recevied weather packets stored in our database for station/object OE6PWE-13. If no packets are shown the sender has not sent any weather packets the latest 1 day(s).
| Time | Temp. | Humidity | Pressure | Rain* | Wind** | Luminosity | Snow |
|---|---|---|---|---|---|---|---|
| 1778010313 | 15° C | 74% | 1009 hPa | 0 mm | 0.89 m/s, 176° | - | - |
| 1778009421 | 15.56° C | 73% | 1009 hPa | 0 mm | 0.89 m/s, 140° | - | - |
| 1778008513 | 15.56° C | 71% | 1009 hPa | 0 mm | 1.34 m/s, 185° | - | - |
| 1778006713 | 16.11° C | 69% | 1009 hPa | 0 mm | 0.89 m/s, 331° | - | - |
| 1778005820 | 16.67° C | 67% | 1008 hPa | 0 mm | 1.34 m/s, 204° | - | - |
| 1778004913 | 16.67° C | 65% | 1009 hPa | 0 mm | 1.34 m/s, 163° | - | - |
| 1778004021 | 17.22° C | 63% | 1009 hPa | 0 mm | 1.79 m/s, 184° | - | - |
| 1778003113 | 17.78° C | 62% | 1009 hPa | 0 mm | 1.79 m/s, 188° | - | - |
| 1778002219 | 18.33° C | 60% | 1008 hPa | 0 mm | 2.24 m/s, 194° | - | - |
| 1778001313 | 18.33° C | 59% | 1008 hPa | 0 mm | 4.02 m/s, 166° | - | - |
| 1778000421 | 18.33° C | 59% | 1008 hPa | 0 mm | 4.47 m/s, 181° | - | - |
| 1777999513 | 18.33° C | 59% | 1009 hPa | 0 mm | 4.02 m/s, 186° | - | - |
| 1777997713 | 18.33° C | 59% | 1009 hPa | 0 mm | 3.58 m/s, 187° | - | - |
| 1777996820 | 18.33° C | 58% | 1009 hPa | 0 mm | 4.02 m/s, 197° | - | - |
| 1777995914 | 18.89° C | 57% | 1009 hPa | 0 mm | 3.13 m/s, 192° | - | - |
| 1777995020 | 18.89° C | 56% | 1009 hPa | 0 mm | 4.47 m/s, 180° | - | - |
| 1777994113 | 19.44° C | 56% | 1009 hPa | 0 mm | 4.02 m/s, 226° | - | - |
| 1777993220 | 19.44° C | 55% | 1009 hPa | 0 mm | 4.02 m/s, 227° | - | - |
| 1777992313 | 20° C | 54% | 1009 hPa | 0 mm | 4.47 m/s, 215° | - | - |
| 1777991418 | 20.56° C | 52% | 1009 hPa | 0 mm | 4.47 m/s, 205° | - | - |
| 1777990513 | 21.11° C | 50% | 1009 hPa | 0 mm | 4.02 m/s, 181° | - | - |
| 1777989621 | 21.11° C | 51% | 1009 hPa | 0 mm | 4.92 m/s, 195° | - | - |
| 1777988713 | 21.11° C | 50% | 1009 hPa | 0 mm | 6.26 m/s, 204° | - | - |
| 1777987832 | 21.11° C | 51% | 1009 hPa | 0 mm | 4.92 m/s, 198° | - | - |
| 1777986913 | 21.11° C | 50% | 1009 hPa | 0 mm | 3.58 m/s, 171° | - | - |
* Rain latest hour (hover to see other rain measurements)
** Current wind speed in m/s (hover to see current wind gust speed)